This is the latest recevied weather packets stored in our database for station/object OSTR-WX. If no packets are shown the sender has not sent any weather packets the latest 10 day(s).
| Time | Temp. | Humidity | Pressure | Rain* | Wind** | Luminosity | Snow |
|---|---|---|---|---|---|---|---|
| 1777919062 | 19.44° C | 49% | 1012.7 hPa | - | - | - | - |
| 1777918111 | 20° C | 48% | 1012.5 hPa | - | - | - | - |
| 1777918105 | 20° C | 48% | 1012.5 hPa | - | - | - | - |
| 1777917154 | 22.22° C | 41% | 1012.2 hPa | - | - | - | - |
| 1777917147 | 22.22° C | 41% | 1012.2 hPa | - | - | - | - |
| 1777916198 | 23.33° C | 38% | 1012.1 hPa | - | - | - | - |
| 1777916191 | 23.33° C | 38% | 1012.1 hPa | - | - | - | - |
| 1777915234 | 25.56° C | 34% | 1011.6 hPa | - | - | - | - |
| 1777914283 | 25.56° C | 33% | 1011.5 hPa | - | - | - | - |
| 1777914276 | 25.56° C | 33% | 1011.5 hPa | - | - | - | - |
| 1777913319 | 25.56° C | 32% | 1011.6 hPa | - | - | - | - |
| 1777912363 | 27.22° C | 31% | 1011.5 hPa | - | - | - | - |
| 1777911413 | 27.22° C | 32% | 1011.5 hPa | - | - | - | - |
| 1777911406 | 27.22° C | 32% | 1011.5 hPa | - | - | - | - |
| 1777910449 | 26.67° C | 33% | 1011.7 hPa | - | - | - | - |
| 1777909493 | 27.22° C | 34% | 1011.7 hPa | - | - | - | - |
| 1777908536 | 27.78° C | 34% | 1011.7 hPa | - | - | - | - |
| 1777907578 | 28.33° C | 34% | 1011.6 hPa | - | - | - | - |
| 1777906622 | 27.78° C | 35% | 1011.8 hPa | - | - | - | - |
| 1777905664 | 26.11° C | 36% | 1012.2 hPa | - | - | - | - |
| 1777904708 | 26.11° C | 35% | 1012.3 hPa | - | - | - | - |
| 1777903757 | 27.22° C | 33% | 1012.3 hPa | - | - | - | - |
| 1777903751 | 27.22° C | 33% | 1012.3 hPa | - | - | - | - |
| 1777902794 | 26.67° C | 32% | 1012.5 hPa | - | - | - | - |
| 1777901843 | 27.22° C | 33% | 1012.5 hPa | - | - | - | - |
* Rain since midnight (hover to see other rain measurements)
** Current wind speed in m/s (hover to see current wind gust speed)